,,PA_Meas_PMT16A,,PR_Meas_QMR101_102,,RH_Meas_QMH101,,SR_Meas_QMS101,,TA_Meas_QMH101,,GenWind,,GenWind,
time,status,PA,status,PR,status,RH,status,SR,status,TA,status,DirAvg,status,SpdAvg,
2011-11-12, 00:00:04,VALID,918.649,VALID,0,VALID,97.4959,VALID,0,VALID,20.1498,VALID,15,VALID,0.118359,
2011-11-12, 00:01:04,VALID,918.606,VALID,0,VALID,97.4654,VALID,0,VALID,20.1498,VALID,15,VALID,0.289844,
2011-11-12, 00:02:04,VALID,918.65,VALID,0,VALID,97.473,VALID,0,VALID,20.1498,VALID,15,VALID,0,
2011-11-12, 00:03:04,VALID,918.641,VALID,0,VALID,97.473,VALID,0,VALID,20.1693,VALID,15,VALID,0.000390625,
2011-11-12, 00:04:04,VALID,918.671,VALID,0,VALID,97.4349,VALID,0,VALID,20.1498,VALID,15,VALID,0.125391,
2011-11-12, 00:05:04,VALID,918.676,VALID,0,VALID,97.4349,VALID,0,VALID,20.1303,VALID,15,VALID,0.448828,
2011-11-12, 00:06:04,VALID,918.676,VALID,0,VALID,97.4044,VALID,0,VALID,20.1303,VALID,15,VALID,0,
2011-11-12, 00:07:04,VALID,918.694,VALID,0,VALID,97.4044,VALID,0,VALID,20.1303,VALID,15,VALID,0,
2011-11-12, 00:08:04,VALID,918.701,VALID,0,VALID,97.4044,VALID,0,VALID,20.1303,VALID,15,VALID,0,
2011-11-12, 00:09:04,VALID,918.679,VALID,0,VALID,97.3891,VALID,0,VALID,20.1303,VALID,15,VALID,0,
2011-11-12, 00:10:04,VALID,918.665,VALID,0,VALID,97.3205,VALID,0,VALID,20.0913,VALID,15,VALID,0.442187,
2011-11-12, 00:11:04,VALID,918.636,VALID,0,VALID,97.3129,VALID,0,VALID,20.0718,VALID,15,VALID,0.564844,
2011-11-12, 00:12:04,VALID,918.644,VALID,0,VALID,97.3205,VALID,0,VALID,20.0718,VALID,15,VALID,0.410547,
2011-11-12, 00:13:04,VALID,918.616,VALID,0,VALID,97.351,VALID,0,VALID,20.0718,VALID,15,VALID,0.314844,
2011-11-12, 00:14:04,VALID,918.614,VALID,0,VALID,97.3205,VALID,0,VALID,20.0523,VALID,15,VALID,0.0644531,
2011-11-12, 00:15:04,VALID,918.613,VALID,0,VALID,97.351,VALID,0,VALID,20.0523,INVALID,360,VALID,0,
2011-11-12, 00:16:04,VALID,918.645,VALID,0,VALID,97.3739,VALID,0,VALID,20.0523,VALID,15,VALID,0,
2011-11-12, 00:17:04,VALID,918.627,VALID,0,VALID,97.3968,VALID,0,VALID,20.0718,VALID,15,VALID,0.132813,
2011-11-12, 00:18:04,VALID,918.645,VALID,0,VALID,97.3815,VALID,0,VALID,20.0523,VALID,15,VALID,0.428906,
2011-11-12, 00:19:04,VALID,918.66,VALID,0,VALID,97.3663,VALID,0,VALID,20.0523,VALID,15,VALID,0.843359,
2011-11-12, 00:20:04,VALID,918.628,VALID,0,VALID,97.3815,VALID,0,VALID,20.0328,VALID,15,VALID,0.66875,
2011-11-12, 00:21:04,VALID,918.662,VALID,0,VALID,97.3815,VALID,0,VALID,20.0328,VALID,15,VALID,0.274609,
2011-11-12, 00:22:04,VALID,918.653,VALID,0,VALID,97.4044,VALID,0,VALID,20.0523,VALID,15,VALID,0.573047,
2011-11-12, 00:23:04,VALID,918.634,VALID,0,VALID,97.4273,VALID,0,VALID,20.0523,VALID,15,VALID,0.6125,
2011-11-12, 00:24:04,VALID,918.615,VALID,0,VALID,97.4273,VALID,0,VALID,20.0928,VALID,15,VALID,0.4375,
2011-11-12, 00:25:04,VALID,918.597,VALID,0,VALID,97.4577,VALID,0,VALID,20.0928,VALID,15,VALID,0.264844,
2011-11-12, 00:26:04,VALID,918.572,VALID,0,VALID,97.4501,VALID,0,VALID,20.1108,VALID,15,VALID,0.51875,
2011-11-12, 00:27:04,VALID,918.545,VALID,0,VALID,97.4501,VALID,0,VALID,20.0898,VALID,15,VALID,0.219141,
2011-11-12, 00:28:05,VALID,918.503,VALID,0,VALID,97.4425,VALID,0,VALID,20.0913,VALID,15,VALID,0.646484,
2011-11-12, 00:29:05,VALID,918.467,VALID,0,VALID,97.3739,VALID,0,VALID,20.0733,VALID,106,VALID,0.899219,
2011-11-12, 00:30:05,VALID,918.452,VALID,0,VALID,97.3281,VALID,0,VALID,20.0733,VALID,105,VALID,0.774609,
2011-11-12, 00:31:05,VALID,918.398,VALID,0,VALID,97.3891,VALID,0,VALID,20.0523,VALID,105,VALID,0.479297,
2011-11-12, 00:32:05,VALID,918.389,VALID,0,VALID,97.3663,VALID,0,VALID,20.0733,VALID,106,VALID,0.768359,
2011-11-12, 00:33:05,VALID,918.364,VALID,0,VALID,97.3205,VALID,0,VALID,20.0523,VALID,73,VALID,1.33867,
2011-11-12, 00:34:05,VALID,918.32,VALID,0,VALID,97.3358,VALID,0,VALID,20.0328,VALID,73,VALID,1.11133,
2011-11-12, 00:35:05,VALID,918.315,VALID,0,VALID,97.3891,VALID,0,VALID,20.0133,VALID,73,VALID,1.22773,
2011-11-12, 00:36:05,VALID,918.32,VALID,0,VALID,97.3968,VALID,0,VALID,20.0523,VALID,73,VALID,1.2082,
2011-11-12, 00:37:05,VALID,918.308,VALID,0,VALID,97.3663,VALID,0,VALID,20.0328,VALID,73,VALID,0.695313,
2011-11-12, 00:38:05,VALID,918.312,VALID,0,VALID,97.3205,VALID,0.107441,VALID,20.0133,VALID,73,VALID,0.266406,
2011-11-12, 00:39:05,VALID,918.275,VALID,0,VALID,97.3815,VALID,0,VALID,19.9938,VALID,73,VALID,0,
2011-11-12, 00:40:05,VALID,918.261,VALID,0,VALID,97.412,VALID,0,VALID,20.0343,VALID,73,VALID,0.00273437,
2011-11-12, 00:41:05,VALID,918.239,VALID,0,VALID,97.3891,VALID,0,VALID,20.0328,VALID,73,VALID,0.423047,
2011-11-12, 00:42:05,VALID,918.239,VALID,0,VALID,97.3815,VALID,0,VALID,20.0328,VALID,73,VALID,0.772266,
2011-11-12, 00:43:05,VALID,918.291,VALID,0,VALID,97.3663,VALID,0,VALID,20.0328,VALID,73,VALID,0.797266,
2011-11-12, 00:44:05,VALID,918.332,VALID,0,VALID,97.351,VALID,0.107441,VALID,20.0328,VALID,73,VALID,0.748047,
2011-11-12, 00:45:05,VALID,918.37,VALID,0,VALID,97.3815,VALID,0.107441,VALID,20.0118,VALID,73,VALID,0.164844,
2011-11-12, 00:46:05,VALID,918.394,VALID,0,VALID,97.3815,VALID,0,VALID,20.0118,VALID,73,VALID,0.655469,
2011-11-12, 00:47:05,VALID,918.412,VALID,0,VALID,97.3968,VALID,0.107441,VALID,20.0328,VALID,73,VALID,0.421875,
2011-11-12, 00:48:05,VALID,918.429,VALID,0,VALID,97.4044,VALID,0,VALID,20.0523,VALID,73,VALID,0.665234,
2011-11-12, 00:49:05,VALID,918.463,VALID,0,VALID,97.3281,VALID,0,VALID,20.0328,VALID,73,VALID,0.640234,
2011-11-12, 00:50:05,VALID,918.467,VALID,0,VALID,97.4044,VALID,0,VALID,20.0523,VALID,73,VALID,0.477344,
2011-11-12, 00:51:05,VALID,918.471,VALID,0,VALID,97.4425,VALID,0.107441,VALID,20.0913,VALID,73,VALID,0.603906,
2011-11-12, 00:52:05,VALID,918.489,VALID,0,VALID,97.4501,VALID,0,VALID,20.1303,VALID,73,VALID,0.746094,
2011-11-12, 00:53:05,VALID,918.455,VALID,0,VALID,97.473,VALID,0,VALID,20.1288,VALID,73,VALID,0.534766,
2011-11-12, 00:54:05,VALID,918.472,VALID,0,VALID,97.3815,VALID,0,VALID,20.1093,VALID,73,VALID,0.252344,
2011-11-12, 00:55:05,VALID,918.46,VALID,0,VALID,97.4044,VALID,0,VALID,20.1498,VALID,72,VALID,0.197266,
2011-11-12, 00:56:05,VALID,918.467,VALID,0,VALID,97.4273,VALID,0,VALID,20.1693,VALID,72,VALID,0.0738281,
2011-11-12, 00:57:05,VALID,918.459,VALID,0,VALID,97.4273,VALID,0.107441,VALID,20.1888,VALID,73,VALID,0.117578,
2011-11-12, 00:58:05,VALID,918.45,VALID,0,VALID,97.4273,VALID,0.107441,VALID,20.1678,VALID,73,VALID,0.5125,
2011-11-12, 00:59:05,VALID,918.44,VALID,0,VALID,97.3663,VALID,0,VALID,20.1498,VALID,72,VALID,0.635156,
2011-11-12, 01:00:05,VALID,918.415,VALID,0,VALID,97.3129,VALID,0,VALID,20.1108,VALID,73,VALID,0.274219,
2011-11-12, 01:01:05,VALID,918.396,VALID,0,VALID,97.3053,VALID,0,VALID,20.1108,VALID,73,VALID,0.539844,
2011-11-12, 01:02:05,VALID,918.413,VALID,0,VALID,97.3358,VALID,0,VALID,20.1303,VALID,73,VALID,0.746484,
2011-11-12, 01:03:05,VALID,918.401,VALID,0,VALID,97.3281,VALID,0,VALID,20.1303,VALID,73,VALID,0.778125,
2011-11-12, 01:04:05,VALID,918.386,VALID,0,VALID,97.351,VALID,0,VALID,20.1108,VALID,73,VALID,0.565625,
2011-11-12, 01:05:05,VALID,918.36,VALID,0,VALID,97.3891,VALID,0,VALID,20.1303,VALID,73,VALID,0.441797,
2011-11-12, 01:06:05,VALID,918.36,VALID,0,VALID,97.3739,VALID,0,VALID,20.1303,VALID,73,VALID,0.317187,
2011-11-12, 01:07:05,VALID,918.332,VALID,0,VALID,97.3663,VALID,0,VALID,20.1498,VALID,73,VALID,0.482031,
2011-11-12, 01:08:05,VALID,918.344,VALID,0,VALID,97.3281,VALID,0,VALID,20.1093,VALID,171,VALID,0.874609,
2011-11-12, 01:09:05,VALID,918.335,VALID,0,VALID,97.3586,VALID,0,VALID,20.1108,VALID,171,VALID,1.16094,
2011-11-12, 01:10:05,VALID,918.312,VALID,0,VALID,97.3358,VALID,0,VALID,20.1108,VALID,171,VALID,1.03047,
2011-11-12, 01:11:05,VALID,918.315,VALID,0,VALID,97.3586,VALID,0,VALID,20.1123,VALID,171,VALID,1.02344,
2011-11-12, 01:12:05,VALID,918.298,VALID,0,VALID,97.3434,VALID,0,VALID,20.0913,VALID,171,VALID,0.646875,
2011-11-12, 01:13:05,VALID,918.276,VALID,0,VALID,97.3586,VALID,0,VALID,20.1108,VALID,171,VALID,0.607422,
2011-11-12, 01:14:05,VALID,918.233,VALID,0,VALID,97.3434,VALID,0,VALID,20.0718,VALID,171,VALID,0.340234,
2011-11-12, 01:15:05,VALID,918.23,VALID,0,VALID,97.3663,VALID,0,VALID,20.0913,VALID,171,VALID,0.344922,
2011-11-12, 01:16:05,VALID,918.199,VALID,0,VALID,97.3434,VALID,0,VALID,20.0928,VALID,170,VALID,0.367969,
2011-11-12, 01:17:05,VALID,918.197,VALID,0,VALID,97.3434,VALID,0,VALID,20.0928,VALID,171,VALID,0.0515625,
2011-11-12, 01:18:05,VALID,918.161,VALID,0,VALID,97.3739,VALID,0,VALID,20.0928,VALID,171,VALID,0.240625,
2011-11-12, 01:19:05,VALID,918.154,VALID,0,VALID,97.351,VALID,0,VALID,20.0718,VALID,171,VALID,0.341406,
2011-11-12, 01:20:05,VALID,918.145,VALID,0,VALID,97.3434,VALID,0,VALID,20.0523,VALID,171,VALID,0.60625,
2011-11-12, 01:21:05,VALID,918.133,VALID,0,VALID,97.3205,VALID,0,VALID,20.0523,VALID,170,VALID,0.709375,
2011-11-12, 01:22:05,VALID,918.163,VALID,0,VALID,97.3281,VALID,0,VALID,20.0328,VALID,170,VALID,0.614453,
2011-11-12, 01:23:05,VALID,918.15,VALID,0,VALID,97.3358,VALID,0,VALID,20.0328,VALID,171,VALID,0.3125,
2011-11-12, 01:24:05,VALID,918.148,VALID,0,VALID,97.3891,VALID,0,VALID,20.0328,VALID,171,VALID,0.139453,
2011-11-12, 01:25:05,VALID,918.14,VALID,0,VALID,97.3815,VALID,0,VALID,20.0328,VALID,171,VALID,0.153516,
2011-11-12, 01:26:05,VALID,918.131,VALID,0,VALID,97.3815,VALID,0,VALID,20.0328,VALID,170,VALID,0,
2011-11-12, 01:27:05,VALID,918.086,VALID,0.2,VALID,97.3891,VALID,0,VALID,20.0328,VALID,171,VALID,0,
2011-11-12, 01:28:05,VALID,918.073,VALID,0.2,VALID,97.4196,VALID,0,VALID,20.0523,VALID,171,VALID,0,
2011-11-12, 01:29:05,VALID,918.061,VALID,0,VALID,97.4501,VALID,0,VALID,20.0913,VALID,171,VALID,0,
2011-11-12, 01:30:05,VALID,918.024,VALID,0.2,VALID,97.4349,VALID,0,VALID,20.0913,VALID,171,VALID,0,
2011-11-12, 01:31:05,VALID,918.024,VALID,0,VALID,97.4196,VALID,0,VALID,20.0718,VALID,171,VALID,0.0253906,
2011-11-12, 01:32:05,VALID,917.99,VALID,0.2,VALID,97.3663,VALID,0,VALID,20.0733,VALID,170,VALID,0.00273437,
2011-11-12, 01:33:05,VALID,917.976,VALID,0.2,VALID,97.3815,VALID,0,VALID,20.0133,VALID,171,VALID,0.0230469,
2011-11-12, 01:34:05,VALID,917.991,VALID,0,VALID,97.3739,VALID,0,VALID,20.0133,VALID,170,VALID,0.147266,
2011-11-12, 01:35:05,VALID,917.971,VALID,0.2,VALID,97.4044,VALID,0,VALID,19.9938,VALID,171,VALID,0.500781,
2011-11-12, 01:36:05,VALID,917.935,VALID,0,VALID,97.3968,VALID,0,VALID,19.9938,VALID,170,VALID,0,
2011-11-12, 01:37:05,VALID,917.914,VALID,0.2,VALID,97.3891,VALID,0,VALID,19.9743,VALID,170,VALID,0,
2011-11-12, 01:38:05,VALID,917.896,VALID,0,VALID,97.4196,VALID,0,VALID,19.9938,VALID,171,VALID,0,
2011-11-12, 01:39:05,VALID,917.922,VALID,0.2,VALID,97.4577,VALID,0.107441,VALID,20.0133,VALID,171,VALID,0.332031,
2011-11-12, 01:40:05,VALID,917.88,VALID,0,VALID,97.4273,VALID,0,VALID,19.9938,VALID,171,VALID,0.384375,
2011-11-12, 01:41:05,VALID,917.895,VALID,0.2,VALID,97.4959,VALID,0.107441,VALID,20.0328,VALID,170,VALID,0.811719,
2011-11-12, 01:42:05,VALID,917.888,VALID,0,VALID,97.4654,VALID,0,VALID,20.0328,VALID,170,VALID,1.00781,
2011-11-12, 01:43:05,VALID,917.89,VALID,0,VALID,97.3891,VALID,0,VALID,19.9923,VALID,170,VALID,1.16133,
2011-11-12, 01:44:05,VALID,917.884,VALID,0.2,VALID,97.4196,VALID,0,VALID,19.9938,VALID,170,VALID,0.896875,
2011-11-12, 01:45:05,VALID,917.913,VALID,0,VALID,97.4196,VALID,0,VALID,19.9953,VALID,166,VALID,1.32187,
2011-11-12, 01:46:05,VALID,917.926,VALID,0.2,VALID,97.4349,VALID,0,VALID,19.9743,VALID,353,VALID,0.940625,
2011-11-12, 01:47:05,VALID,917.946,VALID,0,VALID,97.4196,VALID,0,VALID,19.9743,VALID,352,VALID,1.15547,
2011-11-12, 01:48:05,VALID,917.978,VALID,0.2,VALID,97.4654,VALID,0,VALID,19.9743,VALID,352,VALID,0.880859,
2011-11-12, 01:49:05,VALID,917.976,VALID,0.2,VALID,97.4577,VALID,0,VALID,19.9743,VALID,352,VALID,0.924609,
2011-11-12, 01:50:05,VALID,917.979,VALID,0,VALID,97.473,VALID,0,VALID,19.9938,VALID,352,VALID,0.7125,
2011-11-12, 01:51:05,VALID,917.947,VALID,0.2,VALID,97.4654,VALID,0,VALID,19.9548,VALID,352,VALID,0.667578,
2011-11-12, 01:52:05,VALID,917.975,VALID,0,VALID,97.4654,VALID,0,VALID,19.9743,VALID,352,VALID,0.917578,
2011-11-12, 01:53:05,VALID,917.932,VALID,0.2,VALID,97.5035,VALID,0,VALID,19.9938,VALID,352,VALID,0.660547,
2011-11-12, 01:54:05,VALID,917.916,VALID,0,VALID,97.5264,VALID,0,VALID,19.9938,VALID,352,VALID,0.870703,
2011-11-12, 01:55:05,VALID,917.9,VALID,0.2,VALID,97.4882,VALID,0,VALID,19.9743,VALID,352,VALID,0.741016,
2011-11-12, 01:56:05,VALID,917.881,VALID,0,VALID,97.4959,VALID,0.107441,VALID,20.0133,VALID,352,VALID,0.681641,
2011-11-12, 01:57:05,VALID,917.859,VALID,0.2,VALID,97.4959,VALID,0.107441,VALID,20.0133,VALID,352,VALID,0.889063,
2011-11-12, 01:58:05,VALID,917.814,VALID,0,VALID,97.4882,VALID,0,VALID,19.9953,VALID,352,VALID,0.702734,
2011-11-12, 01:59:05,VALID,917.814,VALID,0,VALID,97.4806,VALID,0,VALID,19.9548,VALID,352,VALID,1.00469,
2011-11-12, 02:00:05,VALID,917.78,VALID,0.2,VALID,97.4959,VALID,0,VALID,19.9743,VALID,344,VALID,1.09414,
2011-11-12, 02:01:05,VALID,917.751,VALID,0,VALID,97.4882,VALID,0,VALID,19.9758,VALID,340,VALID,0.789844,
2011-11-12, 02:02:05,VALID,917.756,VALID,0,VALID,97.4882,VALID,0,VALID,19.9548,VALID,340,VALID,1.09609,
2011-11-12, 02:03:05,VALID,917.73,VALID,0.2,VALID,97.4959,VALID,0,VALID,19.9353,VALID,44,VALID,1.13906,
2011-11-12, 02:04:05,VALID,917.728,VALID,0,VALID,97.5035,VALID,0,VALID,19.9353,VALID,45,VALID,0.933594,
2011-11-12, 02:05:05,VALID,917.703,VALID,0.2,VALID,97.5035,VALID,0,VALID,19.9353,VALID,10,VALID,1.12773,
2011-11-12, 02:06:05,VALID,917.701,VALID,0,VALID,97.5111,VALID,0,VALID,19.9353,VALID,10,VALID,0.665625,
2011-11-12, 02:07:05,VALID,917.697,VALID,0.2,VALID,97.5187,VALID,0,VALID,19.9548,VALID,10,VALID,0.661328,
2011-11-12, 02:08:05,VALID,917.702,VALID,0,VALID,97.5187,VALID,0.107441,VALID,19.9353,VALID,10,VALID,0.278516,
2011-11-12, 02:09:05,VALID,917.703,VALID,0.2,VALID,97.5264,VALID,0,VALID,19.9758,VALID,10,VALID,0.451953,
2011-11-12, 02:10:05,VALID,917.686,VALID,0,VALID,97.5111,VALID,0,VALID,19.9743,VALID,10,VALID,0.569531,
2011-11-12, 02:11:05,VALID,917.656,VALID,0.2,VALID,97.534,VALID,0,VALID,19.9938,VALID,10,VALID,0.809375,
2011-11-12, 02:12:05,VALID,917.613,VALID,0,VALID,97.5492,VALID,0,VALID,19.9938,VALID,10,VALID,0.899219,
2011-11-12, 02:13:05,VALID,917.591,VALID,0.2,VALID,97.5264,VALID,0,VALID,20.0328,VALID,10,VALID,0.964063,
2011-11-12, 02:14:05,VALID,917.575,VALID,0.2,VALID,97.5416,VALID,0,VALID,20.0538,VALID,10,VALID,0.742578,
2011-11-12, 02:15:05,VALID,917.551,VALID,0,VALID,97.5492,VALID,0,VALID,20.0523,VALID,11,VALID,1.08008,
2011-11-12, 02:16:05,VALID,917.561,VALID,0.2,VALID,97.5492,VALID,0,VALID,20.0523,VALID,26,VALID,1.12734,
2011-11-12, 02:17:05,VALID,917.561,VALID,0,VALID,97.5492,VALID,0,VALID,20.0523,VALID,33,VALID,0.667188,
2011-11-12, 02:18:05,VALID,917.534,VALID,0.2,VALID,97.5492,VALID,0,VALID,20.0928,VALID,32,VALID,0.255859,
2011-11-12, 02:19:05,VALID,917.521,VALID,0,VALID,97.5416,VALID,0,VALID,20.0523,VALID,32,VALID,0,
2011-11-12, 02:20:05,VALID,917.557,VALID,0.2,VALID,97.5416,VALID,0,VALID,20.0733,VALID,32,VALID,0,
2011-11-12, 02:21:05,VALID,917.53,VALID,0.2,VALID,97.5492,VALID,0,VALID,20.0328,VALID,32,VALID,0,
2011-11-12, 02:22:05,VALID,917.502,VALID,0.6,VALID,97.5569,VALID,0,VALID,20.0538,VALID,32,VALID,0,
2011-11-12, 02:23:05,VALID,917.501,VALID,0.6,VALID,97.5492,VALID,0,VALID,20.0538,VALID,32,VALID,0.0632813,
2011-11-12, 02:24:05,VALID,917.475,VALID,0.4,VALID,97.5416,VALID,0,VALID,20.0343,VALID,32,VALID,0.768359,
2011-11-12, 02:25:05,VALID,917.456,VALID,0.4,VALID,97.5569,VALID,0,VALID,20.0523,VALID,32,VALID,0.7375,
2011-11-12, 02:26:05,VALID,917.483,VALID,0.2,VALID,97.5645,VALID,0,VALID,20.0733,VALID,32,VALID,0.885547,
2011-11-12, 02:27:05,VALID,917.449,VALID,0.2,VALID,97.5569,VALID,0,VALID,20.0733,VALID,33,VALID,0.832422,
2011-11-12, 02:28:05,VALID,917.439,VALID,0,VALID,97.5569,VALID,0,VALID,20.0733,VALID,49,VALID,0.947656,
2011-11-12, 02:29:05,VALID,917.449,VALID,0.2,VALID,97.5645,VALID,0,VALID,20.0733,VALID,48,VALID,1.24961,
2011-11-12, 02:30:05,VALID,917.412,VALID,0.2,VALID,97.5416,VALID,0,VALID,20.0133,VALID,33,VALID,1.43203,
2011-11-12, 02:31:05,VALID,917.397,VALID,0,VALID,97.5416,VALID,0,VALID,19.9938,VALID,26,VALID,1.58984,
2011-11-12, 02:32:05,VALID,917.4,VALID,0.2,VALID,97.534,VALID,0,VALID,19.9758,VALID,26,VALID,1.19609,
2011-11-12, 02:33:05,VALID,917.41,VALID,0.2,VALID,97.534,VALID,0,VALID,19.9563,VALID,26,VALID,1.0418,
2011-11-12, 02:34:05,VALID,917.395,VALID,0,VALID,97.5492,VALID,0,VALID,19.9173,VALID,26,VALID,1.00859,
2011-11-12, 02:35:05,VALID,917.4,VALID,0.2,VALID,97.5569,VALID,0,VALID,19.9368,VALID,26,VALID,1.58125,
2011-11-12, 02:36:05,VALID,917.429,VALID,0.2,VALID,97.5721,VALID,0,VALID,19.9173,VALID,355,VALID,1.44492,
2011-11-12, 02:37:05,VALID,917.431,VALID,0,VALID,97.5569,VALID,0,VALID,19.8978,VALID,7,VALID,1.38633,
2011-11-12, 02:38:05,VALID,917.43,VALID,0.2,VALID,97.5569,VALID,0,VALID,19.8768,VALID,6,VALID,0.876172,
2011-11-12, 02:39:05,VALID,917.468,VALID,0,VALID,97.5721,VALID,0,VALID,19.8783,VALID,349,VALID,1,
2011-11-12, 02:40:05,VALID,917.491,VALID,0.2,VALID,97.5492,VALID,0,VALID,19.8783,VALID,353,VALID,0.940625,
2011-11-12, 02:41:05,VALID,917.496,VALID,0,VALID,97.5645,VALID,0,VALID,19.8783,VALID,358,VALID,1.13008,
2011-11-12, 02:42:05,VALID,917.454,VALID,0,VALID,97.5492,VALID,0,VALID,19.8003,VALID,8,VALID,1.40742,
2011-11-12, 02:43:05,VALID,917.462,VALID,0,VALID,97.3739,VALID,0,VALID,19.6833,VALID,16,VALID,1.47187,
2011-11-12, 02:44:05,VALID,917.475,VALID,0,VALID,97.4044,VALID,0,VALID,19.6443,VALID,15,VALID,1.47812,
2011-11-12, 02:45:05,VALID,917.459,VALID,0,VALID,97.4806,VALID,0,VALID,19.6443,VALID,15,VALID,0.922266,
2011-11-12, 02:46:05,VALID,917.437,VALID,0.2,VALID,97.4806,VALID,0,VALID,19.6233,VALID,14,VALID,0.760547,
2011-11-12, 02:47:05,VALID,917.431,VALID,0,VALID,97.4806,VALID,0,VALID,19.5648,VALID,355,VALID,1.19297,
2011-11-12, 02:48:05,VALID,917.439,VALID,0,VALID,97.5264,VALID,0,VALID,19.6248,VALID,30,VALID,0.562109,
2011-11-12, 02:49:05,VALID,917.419,VALID,0,VALID,97.5264,VALID,0,VALID,19.5858,VALID,30,VALID,0.200391,
2011-11-12, 02:50:05,VALID,917.44,VALID,0.2,VALID,97.5797,VALID,0,VALID,19.5453,VALID,359,VALID,1.03516,
2011-11-12, 02:51:05,VALID,917.456,VALID,0,VALID,97.5873,VALID,0,VALID,19.5858,VALID,359,VALID,0.778516,
2011-11-12, 02:52:05,VALID,917.424,VALID,0,VALID,97.5873,VALID,0,VALID,19.6053,VALID,13,VALID,1.04453,
2011-11-12, 02:53:05,VALID,917.414,VALID,0.2,VALID,97.5797,VALID,0,VALID,19.6248,VALID,23,VALID,1.11094,
2011-11-12, 02:54:05,VALID,917.439,VALID,0,VALID,97.5721,VALID,0,VALID,19.6053,VALID,22,VALID,1.15781,
2011-11-12, 02:55:05,VALID,917.466,VALID,0,VALID,97.5797,VALID,0,VALID,19.5843,VALID,342,VALID,0.908594,
2011-11-12, 02:56:05,VALID,917.443,VALID,0,VALID,97.595,VALID,0,VALID,19.5858,VALID,342,VALID,0.903125,
2011-11-12, 02:57:05,VALID,917.431,VALID,0,VALID,97.5873,VALID,0,VALID,19.5858,VALID,20,VALID,1.15898,
2011-11-12, 02:58:05,VALID,917.454,VALID,0.2,VALID,97.6026,VALID,0,VALID,19.6053,VALID,332,VALID,0.805078,
2011-11-12, 02:59:05,VALID,917.415,VALID,0,VALID,97.5797,VALID,0,VALID,19.5663,VALID,17,VALID,1.46914,
2011-11-12, 03:00:05,VALID,917.431,VALID,0,VALID,97.5873,VALID,0,VALID,19.5663,VALID,10,VALID,0.626562,
2011-11-12, 03:01:05,VALID,917.408,VALID,0,VALID,97.5873,VALID,0,VALID,19.5663,VALID,10,VALID,0.673828,
2011-11-12, 03:02:05,VALID,917.363,VALID,0,VALID,97.6026,VALID,0,VALID,19.5663,VALID,10,VALID,0.804297,
2011-11-12, 03:03:05,VALID,917.384,VALID,0,VALID,97.5873,VALID,0,VALID,19.5858,VALID,10,VALID,1.38945,
2011-11-12, 03:04:05,VALID,917.367,VALID,0,VALID,97.5797,VALID,0.107441,VALID,19.5453,VALID,360,VALID,1.35234,
2011-11-12, 03:05:05,VALID,917.318,VALID,0,VALID,97.6102,VALID,0,VALID,19.5453,VALID,359,VALID,0.50625,
2011-11-12, 03:06:05,VALID,917.316,VALID,0,VALID,97.6102,VALID,0,VALID,19.5663,VALID,359,VALID,0.357031,
2011-11-12, 03:07:05,VALID,917.299,VALID,0,VALID,97.6102,VALID,0,VALID,19.5663,VALID,359,VALID,0.609766,
2011-11-12, 03:08:05,VALID,917.292,VALID,0.2,VALID,97.6255,VALID,0,VALID,19.5453,VALID,359,VALID,0.533594,
2011-11-12, 03:09:05,VALID,917.292,VALID,0,VALID,97.6255,VALID,0,VALID,19.5873,VALID,359,VALID,0.585547,
2011-11-12, 03:10:05,VALID,917.246,VALID,0,VALID,97.595,VALID,0,VALID,19.5453,VALID,359,VALID,0.492578,
2011-11-12, 03:11:05,VALID,917.237,VALID,0,VALID,97.6102,VALID,0,VALID,19.5663,VALID,359,VALID,0.833594,
2011-11-12, 03:12:05,VALID,917.206,VALID,0,VALID,97.6102,VALID,0,VALID,19.5468,VALID,359,VALID,0.998828,
2011-11-12, 03:13:05,VALID,917.165,VALID,0.2,VALID,97.6178,VALID,0,VALID,19.5663,VALID,359,VALID,1.12148,
2011-11-12, 03:14:05,VALID,917.173,VALID,0,VALID,97.6255,VALID,0,VALID,19.5258,VALID,7,VALID,1.08906,
2011-11-12, 03:15:05,VALID,917.146,VALID,0,VALID,97.6178,VALID,0,VALID,19.5663,VALID,7,VALID,1.07305,
2011-11-12, 03:16:05,VALID,917.113,VALID,0,VALID,97.6407,VALID,0,VALID,19.5663,VALID,7,VALID,0.564453,
2011-11-12, 03:17:05,VALID,917.117,VALID,0.2,VALID,97.656,VALID,0,VALID,19.5843,VALID,7,VALID,0.874219,
2011-11-12, 03:18:04,VALID,917.108,VALID,0,VALID,97.6331,VALID,0,VALID,19.5858,VALID,7,VALID,1.05742,
2011-11-12, 03:19:04,VALID,917.115,VALID,0,VALID,97.6636,VALID,0,VALID,19.5858,VALID,8,VALID,0.678516,
2011-11-12, 03:20:04,VALID,917.111,VALID,0,VALID,97.6331,VALID,0,VALID,19.5858,VALID,7,VALID,0.988281,
2011-11-12, 03:21:04,VALID,917.124,VALID,0.2,VALID,97.6255,VALID,0,VALID,19.5663,VALID,7,VALID,0.698828,
2011-11-12, 03:22:04,VALID,917.155,VALID,0,VALID,97.6636,VALID,0,VALID,19.5663,VALID,7,VALID,0.486328,
2011-11-12, 03:23:04,VALID,917.145,VALID,0,VALID,97.656,VALID,0,VALID,19.5468,VALID,7,VALID,0.519922,
2011-11-12, 03:24:04,VALID,917.159,VALID,0,VALID,97.6483,VALID,0,VALID,19.5663,VALID,7,VALID,0.0757812,
2011-11-12, 03:25:04,VALID,917.158,VALID,0,VALID,97.6483,VALID,0,VALID,19.5468,VALID,7,VALID,0.176172,
2011-11-12, 03:26:04,VALID,917.182,VALID,0,VALID,97.6407,VALID,0,VALID,19.5663,VALID,7,VALID,0.492188,
2011-11-12, 03:27:04,VALID,917.188,VALID,0.2,VALID,97.6636,VALID,0,VALID,19.5663,VALID,7,VALID,0.408203,
2011-11-12, 03:28:04,VALID,917.195,VALID,0,VALID,97.656,VALID,0,VALID,19.5453,VALID,7,VALID,0.725,
2011-11-12, 03:29:04,VALID,917.194,VALID,0,VALID,97.656,VALID,0,VALID,19.5258,VALID,7,VALID,0.730469,
2011-11-12, 03:30:04,VALID,917.214,VALID,0,VALID,97.6636,VALID,0,VALID,19.5663,VALID,8,VALID,0.775781,
2011-11-12, 03:31:04,VALID,917.213,VALID,0,VALID,97.6636,VALID,0,VALID,19.5453,VALID,7,VALID,0.750391,
2011-11-12, 03:32:04,VALID,917.195,VALID,0,VALID,97.656,VALID,0,VALID,19.5663,VALID,8,VALID,0.748438,
2011-11-12, 03:33:04,VALID,917.168,VALID,0,VALID,97.656,VALID,0,VALID,19.5663,VALID,8,VALID,0.813672,
2011-11-12, 03:34:04,VALID,917.157,VALID,0,VALID,97.656,VALID,0,VALID,19.5468,VALID,8,VALID,0.749609,
2011-11-12, 03:35:04,VALID,917.163,VALID,0,VALID,97.656,VALID,0,VALID,19.5453,VALID,8,VALID,0.631641,
2011-11-12, 03:36:04,VALID,917.152,VALID,0,VALID,97.6712,VALID,0,VALID,19.5453,VALID,8,VALID,0.451172,
2011-11-12, 03:37:04,VALID,917.14,VALID,0.2,VALID,97.6483,VALID,0,VALID,19.5468,VALID,8,VALID,0.230469,
2011-11-12, 03:38:04,VALID,917.121,VALID,0,VALID,97.6636,VALID,0,VALID,19.5468,VALID,8,VALID,0.297266,
2011-11-12, 03:39:04,VALID,917.092,VALID,0,VALID,97.6712,VALID,0,VALID,19.5468,VALID,8,VALID,0.181641,
2011-11-12, 03:40:04,VALID,917.047,VALID,0,VALID,97.6788,VALID,0,VALID,19.5453,VALID,8,VALID,0.258594,
2011-11-12, 03:41:04,VALID,917.033,VALID,0,VALID,97.6636,VALID,0,VALID,19.5453,VALID,8,VALID,0.381641,
2011-11-12, 03:42:04,VALID,917.031,VALID,0,VALID,97.656,VALID,0,VALID,19.5453,VALID,8,VALID,0.551172,
2011-11-12, 03:43:04,VALID,917.001,VALID,0,VALID,97.6636,VALID,0,VALID,19.5273,VALID,8,VALID,0.421875,
2011-11-12, 03:44:04,VALID,916.979,VALID,0,VALID,97.6788,VALID,0,VALID,19.5468,VALID,8,VALID,0.389844,
2011-11-12, 03:45:04,VALID,916.977,VALID,0,VALID,97.656,VALID,0,VALID,19.5468,VALID,8,VALID,0,